Home > Weather > Acharnes > Past weeks

Flag for Greece Weather for the Past 2 Weeks in Acharnes, Greece

Now
54 °F

Passing clouds.


Feels Like: 54 °F
Forecast: 49 / 69 °F
Wind: No wind

Location: Elefsis Airport

Current Time: May 3, 2016 at 4:39:06 AM

Latest Report: May 3, 2016 at 3:20 AM


Visibility: N/A

Pressure: 29.74 "Hg

Humidity: 77%

Dew Point: 46 °F

Location of AcharnesLocation

Historic Weather in Acharnes — Graph

°F

Acharnes Temperature Yesterday

Maximum temperature yesterday: 77 °F (at 2:50 PM)
Minimum temperature yesterday: 57 °F (at 2:50 AM)
Average temperature yesterday: 65 °F

High & Low Weather Summary for the Past Weeks

 TemperatureHumidityPressure
High84 °F (Apr 18, 1:50 PM)88% (May 2, 8:50 PM)30.27 "Hg (May 2, 8:50 PM)
Low50 °F (Apr 18, 6:50 AM)16% (Apr 18, 3:50 PM)29.50 "Hg (Apr 24, 6:20 PM)
Average67 °F45%29.91 "Hg
* Reported Apr 18 2:20 AM — May 3 2:50 AM, Acharnes, Weather by CustomWeather, © 2016

Note: Actual official high and low records may vary slightly from our data, if they occured in-between our weather recording intervals... More about our weather records

Advertising

Acharnes Weather History for the Previous 24 Hours

Scroll right to see more
 ConditionsComfort  
Time TempWeatherWind HumidityBarometerVisibility
2:50 AM
Tue, May 3
54 °FPassing clouds.No wind77%29.71 "HgN/A
2:20 AM55 °FPassing clouds.No wind77%29.74 "HgN/A
1:50 AM55 °FPassing clouds.No wind77%29.74 "HgN/A
12:20 AM55 °FPassing clouds.No wind82%29.74 "HgN/A
11:50 PM
Mon, May 2
59 °FPassing clouds.No wind77%29.74 "HgN/A
11:20 PM61 °FPartly cloudy.No wind72%29.74 "HgN/A
10:50 PM63 °FPartly cloudy.No wind88%29.74 "HgN/A
9:50 PM64 °FPartly cloudy.5 mph83%29.71 "HgN/A
9:20 PM63 °FMostly cloudy.No wind88%29.71 "Hg6 mi
8:50 PM63 °FLight rain. More clouds than sun.No wind88%29.71 "Hg6 mi
7:50 PM63 °FLight rain. Mostly cloudy.6 mph83%29.74 "Hg6 mi
7:20 PM63 °FLight rain. Mostly cloudy.14 mph77%29.74 "Hg4 mi
6:50 PM64 °FMostly cloudy.14 mph68%29.74 "HgN/A
6:20 PM66 °FMore clouds than sun.14 mph60%29.74 "HgN/A
5:50 PM66 °FMore clouds than sun.13 mph56%29.74 "HgN/A
5:20 PM68 °FBroken clouds.9 mph49%29.74 "HgN/A
4:50 PM70 °FBroken clouds.10 mph40%29.77 "HgN/A
4:20 PM70 °FBroken clouds.13 mph40%29.77 "HgN/A
3:50 PM72 °FPartly sunny.16 mph33%29.77 "HgN/A
3:20 PM75 °FPartly sunny.16 mph24%29.77 "HgN/A
2:50 PM77 °FPartly sunny.16 mph22%29.80 "HgN/A
2:20 PM75 °FPartly sunny.14 mph39%29.80 "HgN/A
1:50 PM72 °FScattered clouds.14 mph47%29.80 "HgN/A
1:20 PM73 °FPartly sunny.12 mph36%29.80 "HgN/A
12:50 PM72 °FScattered clouds.10 mph36%29.83 "HgN/A
12:20 PM72 °FPartly sunny.7 mph36%29.86 "HgN/A
11:20 AM72 °FScattered clouds.9 mph36%29.86 "HgN/A
10:50 AM70 °FScattered clouds.7 mph38%29.86 "HgN/A
10:20 AM70 °FScattered clouds.6 mph40%29.89 "HgN/A
9:50 AM68 °FPartly sunny.7 mph40%29.86 "HgN/A
9:20 AM68 °FPartly sunny.5 mph38%29.86 "HgN/A
8:50 AM66 °FScattered clouds.5 mph49%29.86 "HgN/A
7:50 AM61 °FScattered clouds.3 mph55%29.86 "HgN/A
6:20 AM57 °FPassing clouds.No wind51%29.86 "HgN/A
5:50 AM57 °FPassing clouds.No wind51%29.86 "HgN/A
5:20 AM59 °FPassing clouds.6 mph48%29.86 "HgN/A
4:50 AM57 °FPassing clouds.5 mph59%29.89 "HgN/A
4:20 AM57 °FPassing clouds.No wind55%29.89 "HgN/A
Weather by CustomWeather, © 2016

See weather overviewHow to use our weather pages